EW6103 Weather Reports


time (UTC)temp
C
wind
direction
speed
KPH
gust
KPH
rain 1hr
cm
rain 24hr
cm
rain mn
cm
humidity
%
barometer
mb
20260504081006 18 135 6.4 9.7 0.00 0.00 0.00 49 1013.1
20260504050012 11 90 0.0 3.2 0.00 0.00 0.00 59 1013.3
20260504045007 11 90 0.0 3.2 0.00 0.00 0.00 59 1013.3
20260504043010 11 90 0.0 3.2 0.00 0.00 0.00 59 1013.3
20260504042013 11 90 0.0 3.2 0.00 0.00 0.00 59 1013.3
20260504040013 11 90 0.0 3.2 0.00 0.00 0.00 59 1013.3
20260504035009 12 135 1.6 3.2 0.00 0.00 0.00 56 1013.1
20260504034009 12 90 1.6 3.2 0.00 0.00 0.00 56 1013.0
20260504033009 12 90 1.6 6.4 0.00 0.00 0.00 55 1013.1
20260504031008 13 135 3.2 6.4 0.00 0.00 0.00 52 1013.0
20260504030013 13 90 4.8 8.0 0.00 0.00 0.00 51 1012.9
20260504025008 13 45 4.8 9.7 0.00 0.00 0.00 50 1012.8
20260504024009 13 90 6.4 11.3 0.00 0.00 0.00 50 1012.7
20260504023010 13 0 6.4 12.9 0.00 0.00 0.00 50 1012.6
20260504022011 13 90 6.4 9.7 0.00 0.00 0.00 50 1012.6
20260504021009 13 90 4.8 9.7 0.00 0.00 0.00 50 1012.7
20260504015008 13 90 4.8 11.3 0.00 0.00 0.00 50 1012.8
20260504014009 13 135 4.8 9.7 0.00 0.00 0.00 50 1012.8
20260504013009 13 90 3.2 6.4 0.00 0.00 0.00 51 1012.6
20260504012009 13 90 3.2 6.4 0.00 0.00 0.00 50 1012.7
20260504011013 13 90 3.2 8.0 0.00 0.00 0.00 50 1012.6
20260504010012 14 90 3.2 6.4 0.00 0.00 0.00 49 1012.6
20260504005008 14 90 6.4 11.3 0.00 0.00 0.00 48 1012.4
20260504004008 14 90 4.8 9.7 0.00 0.00 0.00 49 1012.6
20260504003010 14 90 4.8 8.0 0.00 0.00 0.00 48 1012.5
20260504002009 14 135 4.8 8.0 0.00 0.00 0.00 48 1012.5
20260504001009 14 90 4.8 8.0 0.00 0.00 0.00 48 1012.5
20260504000012 14 90 4.8 9.7 0.00 0.00 0.00 48 1012.6
20260503235006 14 90 4.8 8.0 0.00 0.00 0.00 48 1012.6
20260503234008 14 90 3.2 11.3 0.00 0.00 0.00 49 1012.6
20260503233010 14 90 3.2 6.4 0.00 0.00 0.00 49 1012.7
20260503231015 16 90 4.8 9.7 0.00 0.00 0.00 49 1013.0
20260503225007 16 90 4.8 9.7 0.00 0.00 0.00 49 1013.0
20260503223007 16 90 4.8 9.7 0.00 0.00 0.00 49 1013.0
20260503221009 16 90 4.8 9.7 0.00 0.00 0.00 49 1013.0
20260503220014 16 90 4.8 9.7 0.00 0.00 0.00 49 1013.0
20260503215007 16 90 4.8 9.7 0.00 0.00 0.00 49 1013.0
20260503214008 16 90 4.8 9.7 0.00 0.00 0.00 49 1013.0
20260503213007 16 90 4.8 9.7 0.00 0.00 0.00 49 1013.0
20260503212008 16 90 4.8 9.7 0.00 0.00 0.00 49 1013.0
20260503210012 16 90 4.8 9.7 0.00 0.00 0.00 49 1013.0
20260503205009 16 90 4.8 9.7 0.00 0.00 0.00 49 1013.0
20260503204009 16 90 4.8 9.7 0.00 0.00 0.00 49 1013.0
20260503203011 16 90 3.2 6.4 0.00 0.00 0.00 50 1013.1
20260503202010 16 135 3.2 6.4 0.00 0.00 0.00 48 1013.1
20260503201009 16 135 4.8 9.7 0.00 0.00 0.00 48 1012.9
20260503200012 16 90 4.8 6.4 0.00 0.00 0.00 46 1013.2
20260503195009 17 135 4.8 6.4 0.00 0.00 0.00 46 1013.1
20260503194012 17 135 6.4 9.7 0.00 0.00 0.00 45 1013.0
20260503193010 17 135 6.4 9.7 0.00 0.00 0.00 46 1013.0
20260503192009 16 0 3.2 6.4 0.00 0.00 0.00 46 1012.9
20260503191008 16 135 3.2 6.4 0.00 0.00 0.00 47 1013.0
20260503190013 16 90 1.6 6.4 0.00 0.00 0.00 47 1012.9
20260503185009 17 135 1.6 4.8 0.00 0.00 0.00 45 1012.9
20260503184006 18 90 1.6 6.4 0.00 0.00 0.00 43 1012.7
20260503183010 18 180 3.2 6.4 0.00 0.00 0.00 41 1012.5
20260503182009 20 135 4.8 8.0 0.00 0.00 0.00 37 1012.3
20260503181010 20 180 6.4 11.3 0.00 0.00 0.00 36 1012.2
20260503175009 21 180 4.8 14.5 0.00 0.00 0.00 36 1012.1
20260503174009 21 180 6.4 11.3 0.00 0.00 0.00 35 1011.9
20260503173009 22 135 6.4 14.5 0.00 0.00 0.00 34 1012.0
20260503172008 22 180 6.4 14.5 0.00 0.00 0.00 33 1011.9
20260503151008 26 135 8.0 17.7 0.00 0.00 0.00 28 1011.9
20260503131008 26 90 6.4 17.7 0.00 0.00 0.00 29 1013.1